N95EL UKLL-EPRZ

Flight info

Callsign N95EL
Flight time 0h 36m
Altitude 2500
Route DCT UKKLK/N0173F025 DCT EPRZG DCT EPRZH DCT EPRZQ DCT
Aircraft C208/L-SDFGR/C

Departure

Time 2026-04-22 18:43
Airport Lviv International Airport (UKLL)

Arrival

Time 2026-04-22 19:19
Airport Rzeszów-Jasionka Airport (EPRZ)
Time Latitude Longitude Altitude Speed Heading
2026-04-22 18:08 49.81792 23.95179 1064 ft 0 kts 158°
2026-04-22 18:36 49.81781 23.95186 1067 ft 7 kts 162°
2026-04-22 18:36 49.81750 23.95149 1064 ft 3 kts 247°
2026-04-22 18:36 49.81739 23.95106 1064 ft 7 kts 246°
2026-04-22 18:37 49.81670 23.95135 1064 ft 18 kts 136°
2026-04-22 18:37 49.81602 23.95237 1064 ft 23 kts 135°
2026-04-22 18:37 49.81481 23.95419 1064 ft 24 kts 138°
2026-04-22 18:37 49.81339 23.95556 1064 ft 24 kts 139°
2026-04-22 18:38 49.81234 23.95575 1064 ft 15 kts 226°
2026-04-22 18:38 49.81212 23.95516 1065 ft 0 kts 261°
2026-04-22 18:39 49.81212 23.95513 1065 ft 2 kts 261°
2026-04-22 18:39 49.81227 23.95458 1065 ft 0 kts 316°
2026-04-22 18:42 49.81288 23.95368 1064 ft 35 kts 316°
2026-04-22 18:43 49.81589 23.94919 1067 ft 81 kts 316°
2026-04-22 18:43 49.82044 23.94279 1265 ft 93 kts 320°
2026-04-22 18:43 49.82591 23.93654 1502 ft 98 kts 325°
2026-04-22 18:43 49.83107 23.92932 1776 ft 102 kts 317°
2026-04-22 18:44 49.83633 23.92186 2070 ft 103 kts 318°
2026-04-22 18:44 49.84157 23.91441 2353 ft 102 kts 318°
2026-04-22 18:44 49.84675 23.90693 2553 ft 108 kts 319°
2026-04-22 18:44 49.85305 23.89915 2568 ft 123 kts 323°
2026-04-22 18:45 49.85763 23.88752 2552 ft 138 kts 285°
2026-04-22 18:45 49.85704 23.87213 2564 ft 143 kts 276°
2026-04-22 18:45 49.85795 23.85689 2569 ft 142 kts 285°
2026-04-22 18:45 49.85933 23.84159 2565 ft 144 kts 285°
2026-04-22 18:46 49.86074 23.82610 2563 ft 145 kts 285°
2026-04-22 18:46 49.86215 23.81067 2560 ft 145 kts 285°
2026-04-22 18:46 49.86348 23.79521 2555 ft 145 kts 283°
2026-04-22 18:46 49.86464 23.77970 2547 ft 144 kts 284°
2026-04-22 18:47 49.86601 23.76434 2550 ft 144 kts 284°
2026-04-22 18:47 49.86759 23.74915 2549 ft 141 kts 290°
2026-04-22 18:47 49.87101 23.73527 2551 ft 139 kts 298°
2026-04-22 18:47 49.87515 23.72165 2551 ft 137 kts 302°
2026-04-22 18:48 49.87986 23.70880 2551 ft 137 kts 303°
2026-04-22 18:48 49.88457 23.69613 2557 ft 137 kts 303°
2026-04-22 18:48 49.88932 23.68327 2556 ft 137 kts 305°
2026-04-22 18:48 49.89477 23.67122 2557 ft 137 kts 309°
2026-04-22 18:49 49.89801 23.66435 2561 ft 137 kts 309°
2026-04-22 18:49 49.90364 23.65248 2563 ft 136 kts 309°
2026-04-22 18:50 49.90927 23.64056 2558 ft 137 kts 307°
2026-04-22 18:50 49.91437 23.62798 2560 ft 139 kts 304°
2026-04-22 18:50 49.91948 23.61531 2558 ft 137 kts 305°
2026-04-22 18:50 49.92453 23.60283 2556 ft 136 kts 305°
2026-04-22 18:51 49.92961 23.59042 2556 ft 136 kts 306°
2026-04-22 18:51 49.93470 23.57799 2556 ft 137 kts 305°
2026-04-22 18:51 49.93976 23.56552 2555 ft 136 kts 305°
2026-04-22 18:51 49.94485 23.55300 2559 ft 137 kts 305°
2026-04-22 18:52 49.94970 23.54017 2556 ft 139 kts 295°
2026-04-22 18:52 49.95079 23.52498 2562 ft 143 kts 278°
2026-04-22 18:52 49.95122 23.50953 2564 ft 143 kts 280°
2026-04-22 18:52 49.95178 23.49410 2565 ft 143 kts 280°
2026-04-22 18:53 49.95228 23.47880 2564 ft 144 kts 280°
2026-04-22 18:53 49.95280 23.46386 2564 ft 144 kts 279°
2026-04-22 18:53 49.95331 23.44832 2563 ft 144 kts 279°
2026-04-22 18:53 49.95381 23.43284 2565 ft 143 kts 279°
2026-04-22 18:54 49.95436 23.41737 2566 ft 143 kts 279°
2026-04-22 18:54 49.95486 23.40190 2563 ft 143 kts 279°
2026-04-22 18:54 49.95534 23.38655 2563 ft 142 kts 280°
2026-04-22 18:54 49.95585 23.37123 2562 ft 142 kts 280°
2026-04-22 18:55 49.95637 23.35590 2563 ft 142 kts 279°
2026-04-22 18:55 49.95688 23.34054 2567 ft 143 kts 279°
2026-04-22 18:55 49.95734 23.32519 2567 ft 142 kts 279°
2026-04-22 18:55 49.95786 23.30993 2570 ft 142 kts 279°
2026-04-22 18:56 49.95834 23.29457 2567 ft 143 kts 279°
2026-04-22 18:56 49.95888 23.27920 2564 ft 142 kts 279°
2026-04-22 18:56 49.95933 23.26406 2565 ft 142 kts 279°
2026-04-22 18:56 49.95983 23.24865 2564 ft 143 kts 279°
2026-04-22 18:57 49.96031 23.23325 2566 ft 143 kts 279°
2026-04-22 18:57 49.96080 23.21783 2568 ft 144 kts 279°
2026-04-22 18:57 49.96128 23.20225 2567 ft 145 kts 279°
2026-04-22 18:57 49.96177 23.18666 2565 ft 144 kts 279°
2026-04-22 18:58 49.96225 23.17116 2567 ft 144 kts 279°
2026-04-22 18:58 49.96273 23.15570 2568 ft 143 kts 279°
2026-04-22 18:58 49.96322 23.14020 2567 ft 143 kts 279°
2026-04-22 18:58 49.96362 23.12659 2568 ft 143 kts 279°
2026-04-22 18:59 49.96387 23.11851 2569 ft 144 kts 279°
2026-04-22 18:59 49.96434 23.10325 2570 ft 144 kts 279°
2026-04-22 18:59 49.96480 23.08786 2571 ft 144 kts 279°
2026-04-22 18:59 49.96529 23.07225 2570 ft 144 kts 279°
2026-04-22 19:00 49.96575 23.05665 2569 ft 145 kts 279°
2026-04-22 19:00 49.96622 23.04102 2570 ft 144 kts 279°
2026-04-22 19:00 49.96668 23.02548 2571 ft 144 kts 279°
2026-04-22 19:00 49.96713 23.00998 2570 ft 144 kts 279°
2026-04-22 19:01 49.96761 22.99447 2571 ft 144 kts 278°
2026-04-22 19:01 49.96806 22.97895 2572 ft 144 kts 279°
2026-04-22 19:01 49.96853 22.96339 2574 ft 145 kts 279°
2026-04-22 19:01 49.96896 22.94772 2576 ft 146 kts 278°
2026-04-22 19:02 49.96941 22.93197 2576 ft 146 kts 279°
2026-04-22 19:02 49.96988 22.91630 2575 ft 145 kts 279°
2026-04-22 19:02 49.97034 22.90065 2576 ft 145 kts 279°
2026-04-22 19:02 49.97077 22.88497 2575 ft 145 kts 278°
2026-04-22 19:03 49.97121 22.86932 2573 ft 145 kts 279°
2026-04-22 19:03 49.97167 22.85370 2572 ft 145 kts 279°
2026-04-22 19:03 49.97211 22.83799 2572 ft 146 kts 278°
2026-04-22 19:03 49.97255 22.82231 2570 ft 145 kts 279°
2026-04-22 19:04 49.97299 22.80666 2575 ft 145 kts 279°
2026-04-22 19:04 49.97343 22.79097 2576 ft 146 kts 279°
2026-04-22 19:04 49.97386 22.77541 2582 ft 146 kts 279°
2026-04-22 19:04 49.97430 22.75963 2583 ft 147 kts 279°
2026-04-22 19:05 49.97474 22.74370 2583 ft 148 kts 278°
2026-04-22 19:05 49.97516 22.72777 2580 ft 147 kts 279°
2026-04-22 19:05 49.97560 22.71196 2580 ft 146 kts 278°
2026-04-22 19:05 49.97601 22.69627 2577 ft 145 kts 279°
2026-04-22 19:06 49.97643 22.68060 2577 ft 145 kts 279°
2026-04-22 19:06 49.97686 22.66498 2578 ft 145 kts 280°
2026-04-22 19:06 49.97737 22.64930 2578 ft 146 kts 279°
2026-04-22 19:07 49.97827 22.61771 2581 ft 146 kts 279°
2026-04-22 19:07 49.97862 22.60187 2580 ft 147 kts 278°
2026-04-22 19:07 49.97897 22.58598 2580 ft 147 kts 279°
2026-04-22 19:07 49.97938 22.57025 2580 ft 147 kts 278°
2026-04-22 19:08 49.97958 22.55433 2582 ft 147 kts 278°
2026-04-22 19:08 49.98029 22.53854 2580 ft 147 kts 280°
2026-04-22 19:08 49.98063 22.52264 2579 ft 147 kts 279°
2026-04-22 19:08 49.98043 22.50668 2580 ft 147 kts 276°
2026-04-22 19:09 49.98094 22.49086 2578 ft 147 kts 279°
2026-04-22 19:09 49.98151 22.47497 2578 ft 147 kts 278°
2026-04-22 19:09 49.98181 22.46444 2578 ft 147 kts 278°
2026-04-22 19:09 49.98236 22.44334 2583 ft 146 kts 278°
2026-04-22 19:10 49.98274 22.42759 2585 ft 146 kts 278°
2026-04-22 19:10 49.98314 22.41184 2580 ft 145 kts 278°
2026-04-22 19:10 49.98488 22.39682 2581 ft 139 kts 298°
2026-04-22 19:10 49.98906 22.38324 2579 ft 140 kts 297°
2026-04-22 19:11 49.99295 22.36945 2585 ft 139 kts 297°
2026-04-22 19:11 49.99687 22.35567 2587 ft 140 kts 297°
2026-04-22 19:11 50.00083 22.34180 2588 ft 141 kts 297°
2026-04-22 19:11 50.00484 22.32778 2585 ft 142 kts 297°
2026-04-22 19:12 50.00886 22.31370 2584 ft 142 kts 297°
2026-04-22 19:12 50.01286 22.29967 2588 ft 142 kts 297°
2026-04-22 19:12 50.01682 22.28574 2586 ft 141 kts 297°
2026-04-22 19:12 50.02079 22.27182 2588 ft 141 kts 297°
2026-04-22 19:13 50.02337 22.25732 2585 ft 143 kts 282°
2026-04-22 19:13 50.02469 22.24210 2582 ft 141 kts 284°
2026-04-22 19:13 50.02619 22.22699 2583 ft 142 kts 284°
2026-04-22 19:13 50.02770 22.21174 2581 ft 142 kts 284°
2026-04-22 19:14 50.02921 22.19653 2582 ft 142 kts 284°
2026-04-22 19:14 50.03072 22.18122 2583 ft 143 kts 284°
2026-04-22 19:14 50.03223 22.16590 2581 ft 143 kts 284°
2026-04-22 19:14 50.03375 22.15059 2584 ft 144 kts 284°
2026-04-22 19:15 50.03476 22.14037 2583 ft 144 kts 284°
2026-04-22 19:15 50.03677 22.11980 2581 ft 144 kts 284°
2026-04-22 19:15 50.03827 22.10449 2482 ft 141 kts 283°
2026-04-22 19:15 50.03976 22.08988 2339 ft 132 kts 291°
2026-04-22 19:16 50.04554 22.08028 2196 ft 124 kts 339°
2026-04-22 19:16 50.05414 22.08098 2082 ft 124 kts
2026-04-22 19:16 50.06262 22.08325 1960 ft 123 kts
2026-04-22 19:16 50.07076 22.08548 1802 ft 111 kts
2026-04-22 19:17 50.07802 22.08745 1579 ft 102 kts
2026-04-22 19:17 50.08494 22.08926 1584 ft 103 kts
2026-04-22 19:17 50.09195 22.09093 1578 ft 96 kts
2026-04-22 19:17 50.09770 22.09255 1564 ft 81 kts
2026-04-22 19:18 50.10282 22.09037 1498 ft 78 kts 313°
2026-04-22 19:18 50.10595 22.08333 1389 ft 83 kts 295°
2026-04-22 19:18 50.10839 22.07482 1162 ft 87 kts 288°
2026-04-22 19:18 50.10943 22.06573 963 ft 82 kts 271°
2026-04-22 19:19 50.10940 22.05675 842 ft 83 kts 273°
2026-04-22 19:19 50.10955 22.04776 734 ft 84 kts 272°
2026-04-22 19:19 50.10966 22.03945 683 ft 63 kts 272°
2026-04-22 19:19 50.10977 22.03401 689 ft 37 kts 271°
2026-04-22 19:20 50.10982 22.03061 693 ft 29 kts 271°
2026-04-22 19:20 50.10988 22.02793 693 ft 17 kts 287°
2026-04-22 19:20 50.11055 22.02739 693 ft 12 kts 359°
2026-04-22 19:20 50.11104 22.02740 691 ft 0 kts
2026-04-22 19:21 50.11109 22.02740 690 ft 0 kts
2026-04-22 19:22 50.11110 22.02740 690 ft 3 kts
2026-04-22 19:22 50.11150 22.02686 690 ft 12 kts 274°
2026-04-22 19:22 50.11153 22.02521 690 ft 19 kts 272°
2026-04-22 19:22 50.11156 22.02292 690 ft 17 kts 271°
2026-04-22 19:23 50.11158 22.02131 691 ft 14 kts 271°
2026-04-22 19:23 50.11160 22.01956 693 ft 18 kts 271°
2026-04-22 19:23 50.11163 22.01746 696 ft 17 kts 271°
2026-04-22 19:23 50.11164 22.01639 698 ft 14 kts 271°
2026-04-22 19:24 50.11166 22.01458 701 ft 20 kts 271°
2026-04-22 19:24 50.11169 22.01292 702 ft 11 kts 271°
2026-04-22 19:24 50.11193 22.01218 700 ft 9 kts 351°
2026-04-22 19:24 50.11254 22.01219 702 ft 6 kts
2026-04-22 19:25 50.11265 22.01220 702 ft 0 kts